Index of /20260428/WXO-DD/model_rdps/10km/18/017
Name Last modified Size Description
Parent Directory -
20260428T18Z_MSC_RDPS_AbsoluteVorticity_IsbL-0250_RLatLon0.09_PT017H.grib2 2026-04-28 20:44 637K
20260428T18Z_MSC_RDPS_AbsoluteVorticity_IsbL-0500_RLatLon0.09_PT017H.grib2 2026-04-28 20:44 576K
20260428T18Z_MSC_RDPS_AbsoluteVorticity_IsbL-0700_RLatLon0.09_PT017H.grib2 2026-04-28 20:44 618K
20260428T18Z_MSC_RDPS_AbsoluteVorticity_IsbL-0850_RLatLon0.09_PT017H.grib2 2026-04-28 20:44 777K
20260428T18Z_MSC_RDPS_AirTemp_AGL-120m_RLatLon0.09_PT017H.grib2 2026-04-28 20:44 377K
20260428T18Z_MSC_RDPS_AirTemp_AGL-2m_RLatLon0.09_PT017H.grib2 2026-04-28 20:44 623K
20260428T18Z_MSC_RDPS_AirTemp_AGL-40m_RLatLon0.09_PT017H.grib2 2026-04-28 20:44 395K
20260428T18Z_MSC_RDPS_AirTemp_AGL-80m_RLatLon0.09_PT017H.grib2 2026-04-28 20:44 385K
20260428T18Z_MSC_RDPS_AirTemp_IsbL-0001_RLatLon0.09_PT017H.grib2 2026-04-28 20:44 259K
20260428T18Z_MSC_RDPS_AirTemp_IsbL-0005_RLatLon0.09_PT017H.grib2 2026-04-28 20:44 292K
20260428T18Z_MSC_RDPS_AirTemp_IsbL-0010_RLatLon0.09_PT017H.grib2 2026-04-28 20:44 303K
20260428T18Z_MSC_RDPS_AirTemp_IsbL-0020_RLatLon0.09_PT017H.grib2 2026-04-28 20:44 317K
20260428T18Z_MSC_RDPS_AirTemp_IsbL-0030_RLatLon0.09_PT017H.grib2 2026-04-28 20:44 337K
20260428T18Z_MSC_RDPS_AirTemp_IsbL-0050_RLatLon0.09_PT017H.grib2 2026-04-28 20:44 317K
20260428T18Z_MSC_RDPS_AirTemp_IsbL-0100_RLatLon0.09_PT017H.grib2 2026-04-28 20:44 432K
20260428T18Z_MSC_RDPS_AirTemp_IsbL-0150_RLatLon0.09_PT017H.grib2 2026-04-28 20:44 433K
20260428T18Z_MSC_RDPS_AirTemp_IsbL-0175_RLatLon0.09_PT017H.grib2 2026-04-28 20:44 420K
20260428T18Z_MSC_RDPS_AirTemp_IsbL-0200_RLatLon0.09_PT017H.grib2 2026-04-28 20:44 423K
20260428T18Z_MSC_RDPS_AirTemp_IsbL-0225_RLatLon0.09_PT017H.grib2 2026-04-28 20:44 425K
20260428T18Z_MSC_RDPS_AirTemp_IsbL-0250_RLatLon0.09_PT017H.grib2 2026-04-28 20:44 435K
20260428T18Z_MSC_RDPS_AirTemp_IsbL-0275_RLatLon0.09_PT017H.grib2 2026-04-28 20:44 416K
20260428T18Z_MSC_RDPS_AirTemp_IsbL-0300_RLatLon0.09_PT017H.grib2 2026-04-28 20:44 422K
20260428T18Z_MSC_RDPS_AirTemp_IsbL-0350_RLatLon0.09_PT017H.grib2 2026-04-28 20:44 434K
20260428T18Z_MSC_RDPS_AirTemp_IsbL-0400_RLatLon0.09_PT017H.grib2 2026-04-28 20:44 434K
20260428T18Z_MSC_RDPS_AirTemp_IsbL-0450_RLatLon0.09_PT017H.grib2 2026-04-28 20:44 437K
20260428T18Z_MSC_RDPS_AirTemp_IsbL-0500_RLatLon0.09_PT017H.grib2 2026-04-28 20:44 413K
20260428T18Z_MSC_RDPS_AirTemp_IsbL-0550_RLatLon0.09_PT017H.grib2 2026-04-28 20:44 428K
20260428T18Z_MSC_RDPS_AirTemp_IsbL-0600_RLatLon0.09_PT017H.grib2 2026-04-28 20:44 444K
20260428T18Z_MSC_RDPS_AirTemp_IsbL-0650_RLatLon0.09_PT017H.grib2 2026-04-28 20:44 459K
20260428T18Z_MSC_RDPS_AirTemp_IsbL-0700_RLatLon0.09_PT017H.grib2 2026-04-28 20:44 483K
20260428T18Z_MSC_RDPS_AirTemp_IsbL-0750_RLatLon0.09_PT017H.grib2 2026-04-28 20:44 408K
20260428T18Z_MSC_RDPS_AirTemp_IsbL-0800_RLatLon0.09_PT017H.grib2 2026-04-28 20:44 454K
20260428T18Z_MSC_RDPS_AirTemp_IsbL-0850_RLatLon0.09_PT017H.grib2 2026-04-28 20:44 507K
20260428T18Z_MSC_RDPS_AirTemp_IsbL-0875_RLatLon0.09_PT017H.grib2 2026-04-28 20:44 524K
20260428T18Z_MSC_RDPS_AirTemp_IsbL-0900_RLatLon0.09_PT017H.grib2 2026-04-28 20:44 529K
20260428T18Z_MSC_RDPS_AirTemp_IsbL-0925_RLatLon0.09_PT017H.grib2 2026-04-28 20:44 525K
20260428T18Z_MSC_RDPS_AirTemp_IsbL-0950_RLatLon0.09_PT017H.grib2 2026-04-28 20:44 527K
20260428T18Z_MSC_RDPS_AirTemp_IsbL-0970_RLatLon0.09_PT017H.grib2 2026-04-28 20:44 519K
20260428T18Z_MSC_RDPS_AirTemp_IsbL-0985_RLatLon0.09_PT017H.grib2 2026-04-28 20:44 504K
20260428T18Z_MSC_RDPS_AirTemp_IsbL-1000_RLatLon0.09_PT017H.grib2 2026-04-28 20:44 488K
20260428T18Z_MSC_RDPS_AirTemp_IsbL-1015_RLatLon0.09_PT017H.grib2 2026-04-28 20:44 488K
20260428T18Z_MSC_RDPS_Albedo_Sfc_RLatLon0.09_PT017H.grib2 2026-04-28 20:44 157K
20260428T18Z_MSC_RDPS_CAPE_Sfc_RLatLon0.09_PT017H.grib2 2026-04-28 20:44 1.6M
20260428T18Z_MSC_RDPS_CIN_Sfc_RLatLon0.09_PT017H.grib2 2026-04-28 20:44 1.1M
20260428T18Z_MSC_RDPS_CloudWater_EAtm_RLatLon0.09_PT017H.grib2 2026-04-28 20:44 219K
20260428T18Z_MSC_RDPS_ConvectivePrecip-Accum_Sfc_RLatLon0.09_PT017H.grib2 2026-04-28 20:44 709K
20260428T18Z_MSC_RDPS_DewPointDepression_AGL-2m_RLatLon0.09_PT017H.grib2 2026-04-28 20:44 392K
20260428T18Z_MSC_RDPS_DewPointDepression_IsbL-0001_RLatLon0.09_PT017H.grib2 2026-04-28 20:44 193
20260428T18Z_MSC_RDPS_DewPointDepression_IsbL-0005_RLatLon0.09_PT017H.grib2 2026-04-28 20:44 193
20260428T18Z_MSC_RDPS_DewPointDepression_IsbL-0010_RLatLon0.09_PT017H.grib2 2026-04-28 20:44 193
20260428T18Z_MSC_RDPS_DewPointDepression_IsbL-0020_RLatLon0.09_PT017H.grib2 2026-04-28 20:44 193
20260428T18Z_MSC_RDPS_DewPointDepression_IsbL-0030_RLatLon0.09_PT017H.grib2 2026-04-28 20:44 193
20260428T18Z_MSC_RDPS_DewPointDepression_IsbL-0050_RLatLon0.09_PT017H.grib2 2026-04-28 20:44 87K
20260428T18Z_MSC_RDPS_DewPointDepression_IsbL-0100_RLatLon0.09_PT017H.grib2 2026-04-28 20:44 134K
20260428T18Z_MSC_RDPS_DewPointDepression_IsbL-0150_RLatLon0.09_PT017H.grib2 2026-04-28 20:44 152K
20260428T18Z_MSC_RDPS_DewPointDepression_IsbL-0175_RLatLon0.09_PT017H.grib2 2026-04-28 20:44 180K
20260428T18Z_MSC_RDPS_DewPointDepression_IsbL-0200_RLatLon0.09_PT017H.grib2 2026-04-28 20:44 219K
20260428T18Z_MSC_RDPS_DewPointDepression_IsbL-0225_RLatLon0.09_PT017H.grib2 2026-04-28 20:44 267K
20260428T18Z_MSC_RDPS_DewPointDepression_IsbL-0250_RLatLon0.09_PT017H.grib2 2026-04-28 20:44 304K
20260428T18Z_MSC_RDPS_DewPointDepression_IsbL-0275_RLatLon0.09_PT017H.grib2 2026-04-28 20:44 310K
20260428T18Z_MSC_RDPS_DewPointDepression_IsbL-0300_RLatLon0.09_PT017H.grib2 2026-04-28 20:44 330K
20260428T18Z_MSC_RDPS_DewPointDepression_IsbL-0350_RLatLon0.09_PT017H.grib2 2026-04-28 20:44 336K
20260428T18Z_MSC_RDPS_DewPointDepression_IsbL-0400_RLatLon0.09_PT017H.grib2 2026-04-28 20:44 346K
20260428T18Z_MSC_RDPS_DewPointDepression_IsbL-0450_RLatLon0.09_PT017H.grib2 2026-04-28 20:44 350K
20260428T18Z_MSC_RDPS_DewPointDepression_IsbL-0500_RLatLon0.09_PT017H.grib2 2026-04-28 20:44 357K
20260428T18Z_MSC_RDPS_DewPointDepression_IsbL-0550_RLatLon0.09_PT017H.grib2 2026-04-28 20:44 365K
20260428T18Z_MSC_RDPS_DewPointDepression_IsbL-0600_RLatLon0.09_PT017H.grib2 2026-04-28 20:44 372K
20260428T18Z_MSC_RDPS_DewPointDepression_IsbL-0650_RLatLon0.09_PT017H.grib2 2026-04-28 20:44 376K
20260428T18Z_MSC_RDPS_DewPointDepression_IsbL-0700_RLatLon0.09_PT017H.grib2 2026-04-28 20:44 387K
20260428T18Z_MSC_RDPS_DewPointDepression_IsbL-0750_RLatLon0.09_PT017H.grib2 2026-04-28 20:44 408K
20260428T18Z_MSC_RDPS_DewPointDepression_IsbL-0800_RLatLon0.09_PT017H.grib2 2026-04-28 20:44 440K
20260428T18Z_MSC_RDPS_DewPointDepression_IsbL-0850_RLatLon0.09_PT017H.grib2 2026-04-28 20:44 466K
20260428T18Z_MSC_RDPS_DewPointDepression_IsbL-0875_RLatLon0.09_PT017H.grib2 2026-04-28 20:44 467K
20260428T18Z_MSC_RDPS_DewPointDepression_IsbL-0900_RLatLon0.09_PT017H.grib2 2026-04-28 20:44 455K
20260428T18Z_MSC_RDPS_DewPointDepression_IsbL-0925_RLatLon0.09_PT017H.grib2 2026-04-28 20:44 446K
20260428T18Z_MSC_RDPS_DewPointDepression_IsbL-0950_RLatLon0.09_PT017H.grib2 2026-04-28 20:44 443K
20260428T18Z_MSC_RDPS_DewPointDepression_IsbL-0970_RLatLon0.09_PT017H.grib2 2026-04-28 20:44 435K
20260428T18Z_MSC_RDPS_DewPointDepression_IsbL-0985_RLatLon0.09_PT017H.grib2 2026-04-28 20:44 428K
20260428T18Z_MSC_RDPS_DewPointDepression_IsbL-1000_RLatLon0.09_PT017H.grib2 2026-04-28 20:44 424K
20260428T18Z_MSC_RDPS_DewPointDepression_IsbL-1015_RLatLon0.09_PT017H.grib2 2026-04-28 20:44 418K
20260428T18Z_MSC_RDPS_DewPoint_AGL-2m_RLatLon0.09_PT017H.grib2 2026-04-28 20:44 398K
20260428T18Z_MSC_RDPS_DownwardLongwaveRadiationFlux-Accum_Sfc_RLatLon0.09_PT017H.grib2 2026-04-28 20:44 391K
20260428T18Z_MSC_RDPS_DownwardShortwaveRadiationFlux-Accum_NTAtm_RLatLon0.09_PT017H.grib2 2026-04-28 20:44 100K
20260428T18Z_MSC_RDPS_DownwardShortwaveRadiationFlux-Accum_Sfc_RLatLon0.09_PT017H.grib2 2026-04-28 20:44 551K
20260428T18Z_MSC_RDPS_FreezingRain-Accum1h_Sfc_RLatLon0.09_PT017H.grib2 2026-04-28 20:44 38K
20260428T18Z_MSC_RDPS_FreezingRain-Accum_Sfc_RLatLon0.09_PT017H.grib2 2026-04-28 20:44 95K
20260428T18Z_MSC_RDPS_GeopotentialHeight_IsbL-0001_RLatLon0.09_PT017H.grib2 2026-04-28 20:44 312K
20260428T18Z_MSC_RDPS_GeopotentialHeight_IsbL-0005_RLatLon0.09_PT017H.grib2 2026-04-28 20:44 339K
20260428T18Z_MSC_RDPS_GeopotentialHeight_IsbL-0010_RLatLon0.09_PT017H.grib2 2026-04-28 20:44 307K
20260428T18Z_MSC_RDPS_GeopotentialHeight_IsbL-0020_RLatLon0.09_PT017H.grib2 2026-04-28 20:44 306K
20260428T18Z_MSC_RDPS_GeopotentialHeight_IsbL-0030_RLatLon0.09_PT017H.grib2 2026-04-28 20:44 307K
20260428T18Z_MSC_RDPS_GeopotentialHeight_IsbL-0050_RLatLon0.09_PT017H.grib2 2026-04-28 20:44 310K
20260428T18Z_MSC_RDPS_GeopotentialHeight_IsbL-0100_RLatLon0.09_PT017H.grib2 2026-04-28 20:44 289K
20260428T18Z_MSC_RDPS_GeopotentialHeight_IsbL-0150_RLatLon0.09_PT017H.grib2 2026-04-28 20:44 231K
20260428T18Z_MSC_RDPS_GeopotentialHeight_IsbL-0175_RLatLon0.09_PT017H.grib2 2026-04-28 20:44 234K
20260428T18Z_MSC_RDPS_GeopotentialHeight_IsbL-0200_RLatLon0.09_PT017H.grib2 2026-04-28 20:44 268K
20260428T18Z_MSC_RDPS_GeopotentialHeight_IsbL-0225_RLatLon0.09_PT017H.grib2 2026-04-28 20:44 269K
20260428T18Z_MSC_RDPS_GeopotentialHeight_IsbL-0250_RLatLon0.09_PT017H.grib2 2026-04-28 20:44 270K
20260428T18Z_MSC_RDPS_GeopotentialHeight_IsbL-0275_RLatLon0.09_PT017H.grib2 2026-04-28 20:44 268K
20260428T18Z_MSC_RDPS_GeopotentialHeight_IsbL-0300_RLatLon0.09_PT017H.grib2 2026-04-28 20:44 268K
20260428T18Z_MSC_RDPS_GeopotentialHeight_IsbL-0350_RLatLon0.09_PT017H.grib2 2026-04-28 20:44 233K
20260428T18Z_MSC_RDPS_GeopotentialHeight_IsbL-0400_RLatLon0.09_PT017H.grib2 2026-04-28 20:44 230K
20260428T18Z_MSC_RDPS_GeopotentialHeight_IsbL-0450_RLatLon0.09_PT017H.grib2 2026-04-28 20:44 298K
20260428T18Z_MSC_RDPS_GeopotentialHeight_IsbL-0500_RLatLon0.09_PT017H.grib2 2026-04-28 20:44 293K
20260428T18Z_MSC_RDPS_GeopotentialHeight_IsbL-0550_RLatLon0.09_PT017H.grib2 2026-04-28 20:44 290K
20260428T18Z_MSC_RDPS_GeopotentialHeight_IsbL-0600_RLatLon0.09_PT017H.grib2 2026-04-28 20:44 285K
20260428T18Z_MSC_RDPS_GeopotentialHeight_IsbL-0650_RLatLon0.09_PT017H.grib2 2026-04-28 20:44 255K
20260428T18Z_MSC_RDPS_GeopotentialHeight_IsbL-0700_RLatLon0.09_PT017H.grib2 2026-04-28 20:44 253K
20260428T18Z_MSC_RDPS_GeopotentialHeight_IsbL-0750_RLatLon0.09_PT017H.grib2 2026-04-28 20:44 337K
20260428T18Z_MSC_RDPS_GeopotentialHeight_IsbL-0800_RLatLon0.09_PT017H.grib2 2026-04-28 20:44 345K
20260428T18Z_MSC_RDPS_GeopotentialHeight_IsbL-0850_RLatLon0.09_PT017H.grib2 2026-04-28 20:44 356K
20260428T18Z_MSC_RDPS_GeopotentialHeight_IsbL-0875_RLatLon0.09_PT017H.grib2 2026-04-28 20:44 358K
20260428T18Z_MSC_RDPS_GeopotentialHeight_IsbL-0900_RLatLon0.09_PT017H.grib2 2026-04-28 20:44 364K
20260428T18Z_MSC_RDPS_GeopotentialHeight_IsbL-0925_RLatLon0.09_PT017H.grib2 2026-04-28 20:44 365K
20260428T18Z_MSC_RDPS_GeopotentialHeight_IsbL-0950_RLatLon0.09_PT017H.grib2 2026-04-28 20:44 369K
20260428T18Z_MSC_RDPS_GeopotentialHeight_IsbL-0970_RLatLon0.09_PT017H.grib2 2026-04-28 20:44 376K
20260428T18Z_MSC_RDPS_GeopotentialHeight_IsbL-0985_RLatLon0.09_PT017H.grib2 2026-04-28 20:44 385K
20260428T18Z_MSC_RDPS_GeopotentialHeight_IsbL-1000_RLatLon0.09_PT017H.grib2 2026-04-28 20:44 396K
20260428T18Z_MSC_RDPS_GeopotentialHeight_IsbL-1015_RLatLon0.09_PT017H.grib2 2026-04-28 20:44 410K
20260428T18Z_MSC_RDPS_Humidex_Sfc_RLatLon0.09_PT017H.grib2 2026-04-28 20:44 2.4M
20260428T18Z_MSC_RDPS_IcePellets-Accum1h_Sfc_RLatLon0.09_PT017H.grib2 2026-04-28 20:44 5.3K
20260428T18Z_MSC_RDPS_IcePellets-Accum_Sfc_RLatLon0.09_PT017H.grib2 2026-04-28 20:44 13K
20260428T18Z_MSC_RDPS_KIndex_Sfc_RLatLon0.09_PT017H.grib2 2026-04-28 20:44 2.5M
20260428T18Z_MSC_RDPS_LatentHeatNetFlux_Sfc_RLatLon0.09_PT017H.grib2 2026-04-28 20:44 318K
20260428T18Z_MSC_RDPS_LiftedIndex-MU-VT_IsbL-0500_RLatLon0.09_PT017H.grib2 2026-04-28 20:44 2.4M
20260428T18Z_MSC_RDPS_NetLongwaveRadiationFlux-Accum_Sfc_RLatLon0.09_PT017H.grib2 2026-04-28 20:44 519K
20260428T18Z_MSC_RDPS_NetShortwaveRadiationFlux-Accum_Sfc_RLatLon0.09_PT017H.grib2 2026-04-28 20:44 544K
20260428T18Z_MSC_RDPS_PlanetaryBoundaryLayerHeight_Sfc_RLatLon0.09_PT017H.grib2 2026-04-28 20:44 1.1M
20260428T18Z_MSC_RDPS_Precip-Accum1h_Sfc_RLatLon0.09_PT017H.grib2 2026-04-28 20:44 1.2M
20260428T18Z_MSC_RDPS_Precip-Accum_Sfc_RLatLon0.09_PT017H.grib2 2026-04-28 20:44 1.7M
20260428T18Z_MSC_RDPS_PrecipRate_Sfc_RLatLon0.09_PT017H.grib2 2026-04-28 20:44 174K
20260428T18Z_MSC_RDPS_PrecipType-Instant_Sfc_RLatLon0.09_PT017H.grib2 2026-04-28 20:44 567K
20260428T18Z_MSC_RDPS_Pressure-Trend3h_Sfc_RLatLon0.09_PT017H.grib2 2026-04-28 20:44 1.2M
20260428T18Z_MSC_RDPS_Pressure_MSL_RLatLon0.09_PT017H.grib2 2026-04-28 20:44 294K
20260428T18Z_MSC_RDPS_Pressure_PVU-1.5_RLatLon0.09_PT017H.grib2 2026-04-28 20:44 2.5M
20260428T18Z_MSC_RDPS_Pressure_PVU-1_RLatLon0.09_PT017H.grib2 2026-04-28 20:44 2.4M
20260428T18Z_MSC_RDPS_Pressure_PVU-2_RLatLon0.09_PT017H.grib2 2026-04-28 20:44 2.4M
20260428T18Z_MSC_RDPS_Pressure_Sfc_RLatLon0.09_PT017H.grib2 2026-04-28 20:44 502K
20260428T18Z_MSC_RDPS_RadiativeTemp_Sfc_RLatLon0.09_PT017H.grib2 2026-04-28 20:44 387K
20260428T18Z_MSC_RDPS_Rain-Accum1h_Sfc_RLatLon0.09_PT017H.grib2 2026-04-28 20:44 595K
20260428T18Z_MSC_RDPS_Rain-Accum_Sfc_RLatLon0.09_PT017H.grib2 2026-04-28 20:44 1.2M
20260428T18Z_MSC_RDPS_RelativeHumidity_AGL-2m_RLatLon0.09_PT017H.grib2 2026-04-28 20:44 1.0M
20260428T18Z_MSC_RDPS_RelativeHumidity_IsbL-0010_RLatLon0.09_PT017H.grib2 2026-04-28 20:44 648K
20260428T18Z_MSC_RDPS_RelativeHumidity_IsbL-0020_RLatLon0.09_PT017H.grib2 2026-04-28 20:44 650K
20260428T18Z_MSC_RDPS_RelativeHumidity_IsbL-0030_RLatLon0.09_PT017H.grib2 2026-04-28 20:44 538K
20260428T18Z_MSC_RDPS_RelativeHumidity_IsbL-0050_RLatLon0.09_PT017H.grib2 2026-04-28 20:44 325K
20260428T18Z_MSC_RDPS_RelativeHumidity_IsbL-0100_RLatLon0.09_PT017H.grib2 2026-04-28 20:44 286K
20260428T18Z_MSC_RDPS_RelativeHumidity_IsbL-0150_RLatLon0.09_PT017H.grib2 2026-04-28 20:44 420K
20260428T18Z_MSC_RDPS_RelativeHumidity_IsbL-0175_RLatLon0.09_PT017H.grib2 2026-04-28 20:44 491K
20260428T18Z_MSC_RDPS_RelativeHumidity_IsbL-0200_RLatLon0.09_PT017H.grib2 2026-04-28 20:44 562K
20260428T18Z_MSC_RDPS_RelativeHumidity_IsbL-0225_RLatLon0.09_PT017H.grib2 2026-04-28 20:44 625K
20260428T18Z_MSC_RDPS_RelativeHumidity_IsbL-0250_RLatLon0.09_PT017H.grib2 2026-04-28 20:44 694K
20260428T18Z_MSC_RDPS_RelativeHumidity_IsbL-0275_RLatLon0.09_PT017H.grib2 2026-04-28 20:44 723K
20260428T18Z_MSC_RDPS_RelativeHumidity_IsbL-0300_RLatLon0.09_PT017H.grib2 2026-04-28 20:44 769K
20260428T18Z_MSC_RDPS_RelativeHumidity_IsbL-0350_RLatLon0.09_PT017H.grib2 2026-04-28 20:44 789K
20260428T18Z_MSC_RDPS_RelativeHumidity_IsbL-0400_RLatLon0.09_PT017H.grib2 2026-04-28 20:44 801K
20260428T18Z_MSC_RDPS_RelativeHumidity_IsbL-0450_RLatLon0.09_PT017H.grib2 2026-04-28 20:44 800K
20260428T18Z_MSC_RDPS_RelativeHumidity_IsbL-0500_RLatLon0.09_PT017H.grib2 2026-04-28 20:44 807K
20260428T18Z_MSC_RDPS_RelativeHumidity_IsbL-0550_RLatLon0.09_PT017H.grib2 2026-04-28 20:44 821K
20260428T18Z_MSC_RDPS_RelativeHumidity_IsbL-0600_RLatLon0.09_PT017H.grib2 2026-04-28 20:44 846K
20260428T18Z_MSC_RDPS_RelativeHumidity_IsbL-0650_RLatLon0.09_PT017H.grib2 2026-04-28 20:44 843K
20260428T18Z_MSC_RDPS_RelativeHumidity_IsbL-0700_RLatLon0.09_PT017H.grib2 2026-04-28 20:44 867K
20260428T18Z_MSC_RDPS_RelativeHumidity_IsbL-0750_RLatLon0.09_PT017H.grib2 2026-04-28 20:44 918K
20260428T18Z_MSC_RDPS_RelativeHumidity_IsbL-0800_RLatLon0.09_PT017H.grib2 2026-04-28 20:44 1.0M
20260428T18Z_MSC_RDPS_RelativeHumidity_IsbL-0850_RLatLon0.09_PT017H.grib2 2026-04-28 20:44 1.0M
20260428T18Z_MSC_RDPS_RelativeHumidity_IsbL-0875_RLatLon0.09_PT017H.grib2 2026-04-28 20:44 1.0M
20260428T18Z_MSC_RDPS_RelativeHumidity_IsbL-0900_RLatLon0.09_PT017H.grib2 2026-04-28 20:44 1.1M
20260428T18Z_MSC_RDPS_RelativeHumidity_IsbL-0925_RLatLon0.09_PT017H.grib2 2026-04-28 20:44 1.1M
20260428T18Z_MSC_RDPS_RelativeHumidity_IsbL-0950_RLatLon0.09_PT017H.grib2 2026-04-28 20:44 1.1M
20260428T18Z_MSC_RDPS_RelativeHumidity_IsbL-0970_RLatLon0.09_PT017H.grib2 2026-04-28 20:44 1.1M
20260428T18Z_MSC_RDPS_RelativeHumidity_IsbL-0985_RLatLon0.09_PT017H.grib2 2026-04-28 20:44 1.0M
20260428T18Z_MSC_RDPS_RelativeHumidity_IsbL-1000_RLatLon0.09_PT017H.grib2 2026-04-28 20:44 1.0M
20260428T18Z_MSC_RDPS_RelativeHumidity_IsbL-1015_RLatLon0.09_PT017H.grib2 2026-04-28 20:44 1.0M
20260428T18Z_MSC_RDPS_Runoff-Accum_Sfc_RLatLon0.09_PT017H.grib2 2026-04-28 20:44 58K
20260428T18Z_MSC_RDPS_SWEATIndex_Sfc_RLatLon0.09_PT017H.grib2 2026-04-28 20:44 2.4M
20260428T18Z_MSC_RDPS_SeeingIndex_EAtm_RLatLon0.09_PT017H.grib2 2026-04-28 20:44 1.0M
20260428T18Z_MSC_RDPS_SensibleHeatNetFlux_Sfc_RLatLon0.09_PT017H.grib2 2026-04-28 20:44 298K
20260428T18Z_MSC_RDPS_ShowalterIndex_IsbL-0500_RLatLon0.09_PT017H.grib2 2026-04-28 20:44 2.6M
20260428T18Z_MSC_RDPS_SkyTransparencyIndex_EAtm_RLatLon0.09_PT017H.grib2 2026-04-28 20:44 702K
20260428T18Z_MSC_RDPS_Snow-Accum1h_Sfc_RLatLon0.09_PT017H.grib2 2026-04-28 20:44 527K
20260428T18Z_MSC_RDPS_Snow-Accum_Sfc_RLatLon0.09_PT017H.grib2 2026-04-28 20:44 673K
20260428T18Z_MSC_RDPS_SnowDensity_Sfc_RLatLon0.09_PT017H.grib2 2026-04-28 20:44 179K
20260428T18Z_MSC_RDPS_SnowDepth_Sfc_RLatLon0.09_PT017H.grib2 2026-04-28 20:44 692K
20260428T18Z_MSC_RDPS_SoilTemp_DBS-0to10cm_RLatLon0.09_PT017H.grib2 2026-04-28 20:44 214K
20260428T18Z_MSC_RDPS_SoilTemp_Sfc_RLatLon0.09_PT017H.grib2 2026-04-28 20:44 285K
20260428T18Z_MSC_RDPS_SoilVolumetricIceContent_Sfc_RLatLon0.09_PT017H.grib2 2026-04-28 20:44 167K
20260428T18Z_MSC_RDPS_SoilVolumetricWaterContent_DBS-0to10cm_RLatLon0.09_PT017H.grib2 2026-04-28 20:44 264K
20260428T18Z_MSC_RDPS_SoilVolumetricWaterContent_DBS-0to1cm_RLatLon0.09_PT017H.grib2 2026-04-28 20:44 333K
20260428T18Z_MSC_RDPS_SpecificHumidity_AGL-120m_RLatLon0.09_PT017H.grib2 2026-04-28 20:44 484K
20260428T18Z_MSC_RDPS_SpecificHumidity_AGL-2m_RLatLon0.09_PT017H.grib2 2026-04-28 20:44 650K
20260428T18Z_MSC_RDPS_SpecificHumidity_AGL-40m_RLatLon0.09_PT017H.grib2 2026-04-28 20:44 490K
20260428T18Z_MSC_RDPS_SpecificHumidity_AGL-80m_RLatLon0.09_PT017H.grib2 2026-04-28 20:44 486K
20260428T18Z_MSC_RDPS_SpecificHumidity_IsbL-0001_RLatLon0.09_PT017H.grib2 2026-04-28 20:44 378K
20260428T18Z_MSC_RDPS_SpecificHumidity_IsbL-0005_RLatLon0.09_PT017H.grib2 2026-04-28 20:44 358K
20260428T18Z_MSC_RDPS_SpecificHumidity_IsbL-0010_RLatLon0.09_PT017H.grib2 2026-04-28 20:44 396K
20260428T18Z_MSC_RDPS_SpecificHumidity_IsbL-0020_RLatLon0.09_PT017H.grib2 2026-04-28 20:44 388K
20260428T18Z_MSC_RDPS_SpecificHumidity_IsbL-0030_RLatLon0.09_PT017H.grib2 2026-04-28 20:44 373K
20260428T18Z_MSC_RDPS_SpecificHumidity_IsbL-0050_RLatLon0.09_PT017H.grib2 2026-04-28 20:44 463K
20260428T18Z_MSC_RDPS_SpecificHumidity_IsbL-0100_RLatLon0.09_PT017H.grib2 2026-04-28 20:44 454K
20260428T18Z_MSC_RDPS_SpecificHumidity_IsbL-0150_RLatLon0.09_PT017H.grib2 2026-04-28 20:44 487K
20260428T18Z_MSC_RDPS_SpecificHumidity_IsbL-0175_RLatLon0.09_PT017H.grib2 2026-04-28 20:44 548K
20260428T18Z_MSC_RDPS_SpecificHumidity_IsbL-0200_RLatLon0.09_PT017H.grib2 2026-04-28 20:44 459K
20260428T18Z_MSC_RDPS_SpecificHumidity_IsbL-0225_RLatLon0.09_PT017H.grib2 2026-04-28 20:44 458K
20260428T18Z_MSC_RDPS_SpecificHumidity_IsbL-0250_RLatLon0.09_PT017H.grib2 2026-04-28 20:44 560K
20260428T18Z_MSC_RDPS_SpecificHumidity_IsbL-0275_RLatLon0.09_PT017H.grib2 2026-04-28 20:44 475K
20260428T18Z_MSC_RDPS_SpecificHumidity_IsbL-0300_RLatLon0.09_PT017H.grib2 2026-04-28 20:44 575K
20260428T18Z_MSC_RDPS_SpecificHumidity_IsbL-0350_RLatLon0.09_PT017H.grib2 2026-04-28 20:44 445K
20260428T18Z_MSC_RDPS_SpecificHumidity_IsbL-0400_RLatLon0.09_PT017H.grib2 2026-04-28 20:44 526K
20260428T18Z_MSC_RDPS_SpecificHumidity_IsbL-0450_RLatLon0.09_PT017H.grib2 2026-04-28 20:44 574K
20260428T18Z_MSC_RDPS_SpecificHumidity_IsbL-0500_RLatLon0.09_PT017H.grib2 2026-04-28 20:44 511K
20260428T18Z_MSC_RDPS_SpecificHumidity_IsbL-0550_RLatLon0.09_PT017H.grib2 2026-04-28 20:44 581K
20260428T18Z_MSC_RDPS_SpecificHumidity_IsbL-0600_RLatLon0.09_PT017H.grib2 2026-04-28 20:44 630K
20260428T18Z_MSC_RDPS_SpecificHumidity_IsbL-0650_RLatLon0.09_PT017H.grib2 2026-04-28 20:44 545K
20260428T18Z_MSC_RDPS_SpecificHumidity_IsbL-0700_RLatLon0.09_PT017H.grib2 2026-04-28 20:44 587K
20260428T18Z_MSC_RDPS_SpecificHumidity_IsbL-0750_RLatLon0.09_PT017H.grib2 2026-04-28 20:44 640K
20260428T18Z_MSC_RDPS_SpecificHumidity_IsbL-0800_RLatLon0.09_PT017H.grib2 2026-04-28 20:44 709K
20260428T18Z_MSC_RDPS_SpecificHumidity_IsbL-0850_RLatLon0.09_PT017H.grib2 2026-04-28 20:44 792K
20260428T18Z_MSC_RDPS_SpecificHumidity_IsbL-0875_RLatLon0.09_PT017H.grib2 2026-04-28 20:44 816K
20260428T18Z_MSC_RDPS_SpecificHumidity_IsbL-0900_RLatLon0.09_PT017H.grib2 2026-04-28 20:44 826K
20260428T18Z_MSC_RDPS_SpecificHumidity_IsbL-0925_RLatLon0.09_PT017H.grib2 2026-04-28 20:44 828K
20260428T18Z_MSC_RDPS_SpecificHumidity_IsbL-0950_RLatLon0.09_PT017H.grib2 2026-04-28 20:44 833K
20260428T18Z_MSC_RDPS_SpecificHumidity_IsbL-0970_RLatLon0.09_PT017H.grib2 2026-04-28 20:44 824K
20260428T18Z_MSC_RDPS_SpecificHumidity_IsbL-0985_RLatLon0.09_PT017H.grib2 2026-04-28 20:44 815K
20260428T18Z_MSC_RDPS_SpecificHumidity_IsbL-1000_RLatLon0.09_PT017H.grib2 2026-04-28 20:44 668K
20260428T18Z_MSC_RDPS_SpecificHumidity_IsbL-1015_RLatLon0.09_PT017H.grib2 2026-04-28 20:44 661K
20260428T18Z_MSC_RDPS_SpecificHumidity_Sfc_RLatLon0.09_PT017H.grib2 2026-04-28 20:44 290K
20260428T18Z_MSC_RDPS_StormRelativeHelicity_EtaL-10000_RLatLon0.09_PT017H.grib2 2026-04-28 20:44 1.1M
20260428T18Z_MSC_RDPS_StormSeverityIndex_EtaL-10000_RLatLon0.09_PT017H.grib2 2026-04-28 20:44 1.2M
20260428T18Z_MSC_RDPS_Thickness_IsbL-0850to0700_RLatLon0.09_PT017H.grib2 2026-04-28 20:44 178K
20260428T18Z_MSC_RDPS_Thickness_IsbL-1000to0500_RLatLon0.09_PT017H.grib2 2026-04-28 20:44 199K
20260428T18Z_MSC_RDPS_Thickness_IsbL-1000to0850_RLatLon0.09_PT017H.grib2 2026-04-28 20:44 262K
20260428T18Z_MSC_RDPS_TotalCloudCover_Sfc_RLatLon0.09_PT017H.grib2 2026-04-28 20:44 658K
20260428T18Z_MSC_RDPS_TotalTotalsIndex_Sfc_RLatLon0.09_PT017H.grib2 2026-04-28 20:44 2.4M
20260428T18Z_MSC_RDPS_UVIndex-ClearSky_Sfc_RLatLon0.09_PT017H.grib2 2026-04-28 20:44 115K
20260428T18Z_MSC_RDPS_UVIndex_Sfc_RLatLon0.09_PT017H.grib2 2026-04-28 20:44 259K
20260428T18Z_MSC_RDPS_UpwardLongwaveRadiationFlux_NTAtm_RLatLon0.09_PT017H.grib2 2026-04-28 20:44 495K
20260428T18Z_MSC_RDPS_UpwardShortwaveRadiationFlux_NTAtm_RLatLon0.09_PT017H.grib2 2026-04-28 20:44 245K
20260428T18Z_MSC_RDPS_VerticalVelocity_IsbL-0250_RLatLon0.09_PT017H.grib2 2026-04-28 20:44 445K
20260428T18Z_MSC_RDPS_VerticalVelocity_IsbL-0500_RLatLon0.09_PT017H.grib2 2026-04-28 20:44 549K
20260428T18Z_MSC_RDPS_VerticalVelocity_IsbL-0700_RLatLon0.09_PT017H.grib2 2026-04-28 20:44 589K
20260428T18Z_MSC_RDPS_VerticalVelocity_IsbL-0850_RLatLon0.09_PT017H.grib2 2026-04-28 20:44 690K
20260428T18Z_MSC_RDPS_VerticalWindShear_EtaL-6500_RLatLon0.09_PT017H.grib2 2026-04-28 20:44 1.2M
20260428T18Z_MSC_RDPS_WindChill_Sfc_RLatLon0.09_PT017H.grib2 2026-04-28 20:44 1.1M
20260428T18Z_MSC_RDPS_WindDir_AGL-10m_RLatLon0.09_PT017H.grib2 2026-04-28 20:44 1.0M
20260428T18Z_MSC_RDPS_WindDir_AGL-120m_RLatLon0.09_PT017H.grib2 2026-04-28 20:44 614K
20260428T18Z_MSC_RDPS_WindDir_AGL-40m_RLatLon0.09_PT017H.grib2 2026-04-28 20:44 645K
20260428T18Z_MSC_RDPS_WindDir_AGL-80m_RLatLon0.09_PT017H.grib2 2026-04-28 20:44 625K
20260428T18Z_MSC_RDPS_WindDir_IsbL-0001_RLatLon0.09_PT017H.grib2 2026-04-28 20:44 313K
20260428T18Z_MSC_RDPS_WindDir_IsbL-0005_RLatLon0.09_PT017H.grib2 2026-04-28 20:44 368K
20260428T18Z_MSC_RDPS_WindDir_IsbL-0010_RLatLon0.09_PT017H.grib2 2026-04-28 20:44 377K
20260428T18Z_MSC_RDPS_WindDir_IsbL-0020_RLatLon0.09_PT017H.grib2 2026-04-28 20:44 400K
20260428T18Z_MSC_RDPS_WindDir_IsbL-0030_RLatLon0.09_PT017H.grib2 2026-04-28 20:44 412K
20260428T18Z_MSC_RDPS_WindDir_IsbL-0050_RLatLon0.09_PT017H.grib2 2026-04-28 20:44 432K
20260428T18Z_MSC_RDPS_WindDir_IsbL-0100_RLatLon0.09_PT017H.grib2 2026-04-28 20:44 424K
20260428T18Z_MSC_RDPS_WindDir_IsbL-0150_RLatLon0.09_PT017H.grib2 2026-04-28 20:44 425K
20260428T18Z_MSC_RDPS_WindDir_IsbL-0175_RLatLon0.09_PT017H.grib2 2026-04-28 20:44 444K
20260428T18Z_MSC_RDPS_WindDir_IsbL-0200_RLatLon0.09_PT017H.grib2 2026-04-28 20:44 452K
20260428T18Z_MSC_RDPS_WindDir_IsbL-0225_RLatLon0.09_PT017H.grib2 2026-04-28 20:44 455K
20260428T18Z_MSC_RDPS_WindDir_IsbL-0250_RLatLon0.09_PT017H.grib2 2026-04-28 20:44 458K
20260428T18Z_MSC_RDPS_WindDir_IsbL-0275_RLatLon0.09_PT017H.grib2 2026-04-28 20:44 481K
20260428T18Z_MSC_RDPS_WindDir_IsbL-0300_RLatLon0.09_PT017H.grib2 2026-04-28 20:44 482K
20260428T18Z_MSC_RDPS_WindDir_IsbL-0350_RLatLon0.09_PT017H.grib2 2026-04-28 20:44 504K
20260428T18Z_MSC_RDPS_WindDir_IsbL-0400_RLatLon0.09_PT017H.grib2 2026-04-28 20:44 525K
20260428T18Z_MSC_RDPS_WindDir_IsbL-0450_RLatLon0.09_PT017H.grib2 2026-04-28 20:44 537K
20260428T18Z_MSC_RDPS_WindDir_IsbL-0500_RLatLon0.09_PT017H.grib2 2026-04-28 20:44 549K
20260428T18Z_MSC_RDPS_WindDir_IsbL-0550_RLatLon0.09_PT017H.grib2 2026-04-28 20:44 562K
20260428T18Z_MSC_RDPS_WindDir_IsbL-0600_RLatLon0.09_PT017H.grib2 2026-04-28 20:44 589K
20260428T18Z_MSC_RDPS_WindDir_IsbL-0650_RLatLon0.09_PT017H.grib2 2026-04-28 20:44 628K
20260428T18Z_MSC_RDPS_WindDir_IsbL-0700_RLatLon0.09_PT017H.grib2 2026-04-28 20:44 669K
20260428T18Z_MSC_RDPS_WindDir_IsbL-0750_RLatLon0.09_PT017H.grib2 2026-04-28 20:44 721K
20260428T18Z_MSC_RDPS_WindDir_IsbL-0800_RLatLon0.09_PT017H.grib2 2026-04-28 20:44 780K
20260428T18Z_MSC_RDPS_WindDir_IsbL-0850_RLatLon0.09_PT017H.grib2 2026-04-28 20:44 856K
20260428T18Z_MSC_RDPS_WindDir_IsbL-0875_RLatLon0.09_PT017H.grib2 2026-04-28 20:44 884K
20260428T18Z_MSC_RDPS_WindDir_IsbL-0900_RLatLon0.09_PT017H.grib2 2026-04-28 20:44 902K
20260428T18Z_MSC_RDPS_WindDir_IsbL-0925_RLatLon0.09_PT017H.grib2 2026-04-28 20:44 912K
20260428T18Z_MSC_RDPS_WindDir_IsbL-0950_RLatLon0.09_PT017H.grib2 2026-04-28 20:44 916K
20260428T18Z_MSC_RDPS_WindDir_IsbL-0970_RLatLon0.09_PT017H.grib2 2026-04-28 20:44 928K
20260428T18Z_MSC_RDPS_WindDir_IsbL-0985_RLatLon0.09_PT017H.grib2 2026-04-28 20:44 938K
20260428T18Z_MSC_RDPS_WindDir_IsbL-1000_RLatLon0.09_PT017H.grib2 2026-04-28 20:44 953K
20260428T18Z_MSC_RDPS_WindDir_IsbL-1015_RLatLon0.09_PT017H.grib2 2026-04-28 20:44 971K
20260428T18Z_MSC_RDPS_WindGust-Max_AGL-10m_RLatLon0.09_PT017H.grib2 2026-04-28 20:44 954K
20260428T18Z_MSC_RDPS_WindGust-Min_AGL-10m_RLatLon0.09_PT017H.grib2 2026-04-28 20:44 972K
20260428T18Z_MSC_RDPS_WindGust_AGL-10m_RLatLon0.09_PT017H.grib2 2026-04-28 20:44 1.0M
20260428T18Z_MSC_RDPS_WindSpeed_AGL-10m_RLatLon0.09_PT017H.grib2 2026-04-28 20:44 849K
20260428T18Z_MSC_RDPS_WindSpeed_AGL-120m_RLatLon0.09_PT017H.grib2 2026-04-28 20:44 556K
20260428T18Z_MSC_RDPS_WindSpeed_AGL-40m_RLatLon0.09_PT017H.grib2 2026-04-28 20:44 557K
20260428T18Z_MSC_RDPS_WindSpeed_AGL-80m_RLatLon0.09_PT017H.grib2 2026-04-28 20:44 556K
20260428T18Z_MSC_RDPS_WindSpeed_IsbL-0001_RLatLon0.09_PT017H.grib2 2026-04-28 20:44 254K
20260428T18Z_MSC_RDPS_WindSpeed_IsbL-0005_RLatLon0.09_PT017H.grib2 2026-04-28 20:44 296K
20260428T18Z_MSC_RDPS_WindSpeed_IsbL-0010_RLatLon0.09_PT017H.grib2 2026-04-28 20:44 307K
20260428T18Z_MSC_RDPS_WindSpeed_IsbL-0020_RLatLon0.09_PT017H.grib2 2026-04-28 20:44 323K
20260428T18Z_MSC_RDPS_WindSpeed_IsbL-0030_RLatLon0.09_PT017H.grib2 2026-04-28 20:44 320K
20260428T18Z_MSC_RDPS_WindSpeed_IsbL-0050_RLatLon0.09_PT017H.grib2 2026-04-28 20:44 354K
20260428T18Z_MSC_RDPS_WindSpeed_IsbL-0100_RLatLon0.09_PT017H.grib2 2026-04-28 20:44 451K
20260428T18Z_MSC_RDPS_WindSpeed_IsbL-0150_RLatLon0.09_PT017H.grib2 2026-04-28 20:44 392K
20260428T18Z_MSC_RDPS_WindSpeed_IsbL-0175_RLatLon0.09_PT017H.grib2 2026-04-28 20:44 439K
20260428T18Z_MSC_RDPS_WindSpeed_IsbL-0200_RLatLon0.09_PT017H.grib2 2026-04-28 20:44 457K
20260428T18Z_MSC_RDPS_WindSpeed_IsbL-0225_RLatLon0.09_PT017H.grib2 2026-04-28 20:44 462K
20260428T18Z_MSC_RDPS_WindSpeed_IsbL-0250_RLatLon0.09_PT017H.grib2 2026-04-28 20:44 465K
20260428T18Z_MSC_RDPS_WindSpeed_IsbL-0275_RLatLon0.09_PT017H.grib2 2026-04-28 20:44 485K
20260428T18Z_MSC_RDPS_WindSpeed_IsbL-0300_RLatLon0.09_PT017H.grib2 2026-04-28 20:44 480K
20260428T18Z_MSC_RDPS_WindSpeed_IsbL-0350_RLatLon0.09_PT017H.grib2 2026-04-28 20:44 491K
20260428T18Z_MSC_RDPS_WindSpeed_IsbL-0400_RLatLon0.09_PT017H.grib2 2026-04-28 20:44 474K
20260428T18Z_MSC_RDPS_WindSpeed_IsbL-0450_RLatLon0.09_PT017H.grib2 2026-04-28 20:44 471K
20260428T18Z_MSC_RDPS_WindSpeed_IsbL-0500_RLatLon0.09_PT017H.grib2 2026-04-28 20:44 469K
20260428T18Z_MSC_RDPS_WindSpeed_IsbL-0550_RLatLon0.09_PT017H.grib2 2026-04-28 20:44 468K
20260428T18Z_MSC_RDPS_WindSpeed_IsbL-0600_RLatLon0.09_PT017H.grib2 2026-04-28 20:44 474K
20260428T18Z_MSC_RDPS_WindSpeed_IsbL-0650_RLatLon0.09_PT017H.grib2 2026-04-28 20:44 611K
20260428T18Z_MSC_RDPS_WindSpeed_IsbL-0700_RLatLon0.09_PT017H.grib2 2026-04-28 20:44 632K
20260428T18Z_MSC_RDPS_WindSpeed_IsbL-0750_RLatLon0.09_PT017H.grib2 2026-04-28 20:44 661K
20260428T18Z_MSC_RDPS_WindSpeed_IsbL-0800_RLatLon0.09_PT017H.grib2 2026-04-28 20:44 708K
20260428T18Z_MSC_RDPS_WindSpeed_IsbL-0850_RLatLon0.09_PT017H.grib2 2026-04-28 20:44 767K
20260428T18Z_MSC_RDPS_WindSpeed_IsbL-0875_RLatLon0.09_PT017H.grib2 2026-04-28 20:44 787K
20260428T18Z_MSC_RDPS_WindSpeed_IsbL-0900_RLatLon0.09_PT017H.grib2 2026-04-28 20:44 847K
20260428T18Z_MSC_RDPS_WindSpeed_IsbL-0925_RLatLon0.09_PT017H.grib2 2026-04-28 20:44 858K
20260428T18Z_MSC_RDPS_WindSpeed_IsbL-0950_RLatLon0.09_PT017H.grib2 2026-04-28 20:44 861K
20260428T18Z_MSC_RDPS_WindSpeed_IsbL-0970_RLatLon0.09_PT017H.grib2 2026-04-28 20:44 863K
20260428T18Z_MSC_RDPS_WindSpeed_IsbL-0985_RLatLon0.09_PT017H.grib2 2026-04-28 20:44 859K
20260428T18Z_MSC_RDPS_WindSpeed_IsbL-1000_RLatLon0.09_PT017H.grib2 2026-04-28 20:44 855K
20260428T18Z_MSC_RDPS_WindSpeed_IsbL-1015_RLatLon0.09_PT017H.grib2 2026-04-28 20:44 847K
20260428T18Z_MSC_RDPS_WindU_AGL-10m_RLatLon0.09_PT017H.grib2 2026-04-28 20:44 384K
20260428T18Z_MSC_RDPS_WindU_AGL-120m_RLatLon0.09_PT017H.grib2 2026-04-28 20:44 422K
20260428T18Z_MSC_RDPS_WindU_AGL-40m_RLatLon0.09_PT017H.grib2 2026-04-28 20:44 425K
20260428T18Z_MSC_RDPS_WindU_AGL-80m_RLatLon0.09_PT017H.grib2 2026-04-28 20:44 424K
20260428T18Z_MSC_RDPS_WindU_IsbL-0001_RLatLon0.09_PT017H.grib2 2026-04-28 20:44 294K
20260428T18Z_MSC_RDPS_WindU_IsbL-0005_RLatLon0.09_PT017H.grib2 2026-04-28 20:44 288K
20260428T18Z_MSC_RDPS_WindU_IsbL-0010_RLatLon0.09_PT017H.grib2 2026-04-28 20:44 298K
20260428T18Z_MSC_RDPS_WindU_IsbL-0020_RLatLon0.09_PT017H.grib2 2026-04-28 20:44 314K
20260428T18Z_MSC_RDPS_WindU_IsbL-0030_RLatLon0.09_PT017H.grib2 2026-04-28 20:44 313K
20260428T18Z_MSC_RDPS_WindU_IsbL-0050_RLatLon0.09_PT017H.grib2 2026-04-28 20:44 381K
20260428T18Z_MSC_RDPS_WindU_IsbL-0100_RLatLon0.09_PT017H.grib2 2026-04-28 20:44 344K
20260428T18Z_MSC_RDPS_WindU_IsbL-0150_RLatLon0.09_PT017H.grib2 2026-04-28 20:44 407K
20260428T18Z_MSC_RDPS_WindU_IsbL-0175_RLatLon0.09_PT017H.grib2 2026-04-28 20:44 431K
20260428T18Z_MSC_RDPS_WindU_IsbL-0200_RLatLon0.09_PT017H.grib2 2026-04-28 20:44 347K
20260428T18Z_MSC_RDPS_WindU_IsbL-0225_RLatLon0.09_PT017H.grib2 2026-04-28 20:44 350K
20260428T18Z_MSC_RDPS_WindU_IsbL-0250_RLatLon0.09_PT017H.grib2 2026-04-28 20:44 352K
20260428T18Z_MSC_RDPS_WindU_IsbL-0275_RLatLon0.09_PT017H.grib2 2026-04-28 20:44 368K
20260428T18Z_MSC_RDPS_WindU_IsbL-0300_RLatLon0.09_PT017H.grib2 2026-04-28 20:44 467K
20260428T18Z_MSC_RDPS_WindU_IsbL-0350_RLatLon0.09_PT017H.grib2 2026-04-28 20:44 478K
20260428T18Z_MSC_RDPS_WindU_IsbL-0400_RLatLon0.09_PT017H.grib2 2026-04-28 20:44 478K
20260428T18Z_MSC_RDPS_WindU_IsbL-0450_RLatLon0.09_PT017H.grib2 2026-04-28 20:44 474K
20260428T18Z_MSC_RDPS_WindU_IsbL-0500_RLatLon0.09_PT017H.grib2 2026-04-28 20:44 473K
20260428T18Z_MSC_RDPS_WindU_IsbL-0550_RLatLon0.09_PT017H.grib2 2026-04-28 20:44 472K
20260428T18Z_MSC_RDPS_WindU_IsbL-0600_RLatLon0.09_PT017H.grib2 2026-04-28 20:44 461K
20260428T18Z_MSC_RDPS_WindU_IsbL-0650_RLatLon0.09_PT017H.grib2 2026-04-28 20:44 479K
20260428T18Z_MSC_RDPS_WindU_IsbL-0700_RLatLon0.09_PT017H.grib2 2026-04-28 20:44 499K
20260428T18Z_MSC_RDPS_WindU_IsbL-0750_RLatLon0.09_PT017H.grib2 2026-04-28 20:44 526K
20260428T18Z_MSC_RDPS_WindU_IsbL-0800_RLatLon0.09_PT017H.grib2 2026-04-28 20:44 569K
20260428T18Z_MSC_RDPS_WindU_IsbL-0850_RLatLon0.09_PT017H.grib2 2026-04-28 20:44 623K
20260428T18Z_MSC_RDPS_WindU_IsbL-0875_RLatLon0.09_PT017H.grib2 2026-04-28 20:44 648K
20260428T18Z_MSC_RDPS_WindU_IsbL-0900_RLatLon0.09_PT017H.grib2 2026-04-28 20:44 651K
20260428T18Z_MSC_RDPS_WindU_IsbL-0925_RLatLon0.09_PT017H.grib2 2026-04-28 20:44 663K
20260428T18Z_MSC_RDPS_WindU_IsbL-0950_RLatLon0.09_PT017H.grib2 2026-04-28 20:44 654K
20260428T18Z_MSC_RDPS_WindU_IsbL-0970_RLatLon0.09_PT017H.grib2 2026-04-28 20:44 655K
20260428T18Z_MSC_RDPS_WindU_IsbL-0985_RLatLon0.09_PT017H.grib2 2026-04-28 20:44 652K
20260428T18Z_MSC_RDPS_WindU_IsbL-1000_RLatLon0.09_PT017H.grib2 2026-04-28 20:44 649K
20260428T18Z_MSC_RDPS_WindU_IsbL-1015_RLatLon0.09_PT017H.grib2 2026-04-28 20:44 644K
20260428T18Z_MSC_RDPS_WindV_AGL-10m_RLatLon0.09_PT017H.grib2 2026-04-28 20:44 434K
20260428T18Z_MSC_RDPS_WindV_AGL-120m_RLatLon0.09_PT017H.grib2 2026-04-28 20:44 539K
20260428T18Z_MSC_RDPS_WindV_AGL-40m_RLatLon0.09_PT017H.grib2 2026-04-28 20:44 541K
20260428T18Z_MSC_RDPS_WindV_AGL-80m_RLatLon0.09_PT017H.grib2 2026-04-28 20:44 539K
20260428T18Z_MSC_RDPS_WindV_IsbL-0001_RLatLon0.09_PT017H.grib2 2026-04-28 20:44 293K
20260428T18Z_MSC_RDPS_WindV_IsbL-0005_RLatLon0.09_PT017H.grib2 2026-04-28 20:44 287K
20260428T18Z_MSC_RDPS_WindV_IsbL-0010_RLatLon0.09_PT017H.grib2 2026-04-28 20:44 299K
20260428T18Z_MSC_RDPS_WindV_IsbL-0020_RLatLon0.09_PT017H.grib2 2026-04-28 20:44 355K
20260428T18Z_MSC_RDPS_WindV_IsbL-0030_RLatLon0.09_PT017H.grib2 2026-04-28 20:44 316K
20260428T18Z_MSC_RDPS_WindV_IsbL-0050_RLatLon0.09_PT017H.grib2 2026-04-28 20:44 347K
20260428T18Z_MSC_RDPS_WindV_IsbL-0100_RLatLon0.09_PT017H.grib2 2026-04-28 20:44 339K
20260428T18Z_MSC_RDPS_WindV_IsbL-0150_RLatLon0.09_PT017H.grib2 2026-04-28 20:44 404K
20260428T18Z_MSC_RDPS_WindV_IsbL-0175_RLatLon0.09_PT017H.grib2 2026-04-28 20:44 334K
20260428T18Z_MSC_RDPS_WindV_IsbL-0200_RLatLon0.09_PT017H.grib2 2026-04-28 20:44 347K
20260428T18Z_MSC_RDPS_WindV_IsbL-0225_RLatLon0.09_PT017H.grib2 2026-04-28 20:44 350K
20260428T18Z_MSC_RDPS_WindV_IsbL-0250_RLatLon0.09_PT017H.grib2 2026-04-28 20:44 376K
20260428T18Z_MSC_RDPS_WindV_IsbL-0275_RLatLon0.09_PT017H.grib2 2026-04-28 20:44 390K
20260428T18Z_MSC_RDPS_WindV_IsbL-0300_RLatLon0.09_PT017H.grib2 2026-04-28 20:44 386K
20260428T18Z_MSC_RDPS_WindV_IsbL-0350_RLatLon0.09_PT017H.grib2 2026-04-28 20:44 371K
20260428T18Z_MSC_RDPS_WindV_IsbL-0400_RLatLon0.09_PT017H.grib2 2026-04-28 20:44 372K
20260428T18Z_MSC_RDPS_WindV_IsbL-0450_RLatLon0.09_PT017H.grib2 2026-04-28 20:44 475K
20260428T18Z_MSC_RDPS_WindV_IsbL-0500_RLatLon0.09_PT017H.grib2 2026-04-28 20:44 473K
20260428T18Z_MSC_RDPS_WindV_IsbL-0550_RLatLon0.09_PT017H.grib2 2026-04-28 20:44 471K
20260428T18Z_MSC_RDPS_WindV_IsbL-0600_RLatLon0.09_PT017H.grib2 2026-04-28 20:44 478K
20260428T18Z_MSC_RDPS_WindV_IsbL-0650_RLatLon0.09_PT017H.grib2 2026-04-28 20:44 494K
20260428T18Z_MSC_RDPS_WindV_IsbL-0700_RLatLon0.09_PT017H.grib2 2026-04-28 20:44 512K
20260428T18Z_MSC_RDPS_WindV_IsbL-0750_RLatLon0.09_PT017H.grib2 2026-04-28 20:44 536K
20260428T18Z_MSC_RDPS_WindV_IsbL-0800_RLatLon0.09_PT017H.grib2 2026-04-28 20:44 576K
20260428T18Z_MSC_RDPS_WindV_IsbL-0850_RLatLon0.09_PT017H.grib2 2026-04-28 20:44 619K
20260428T18Z_MSC_RDPS_WindV_IsbL-0875_RLatLon0.09_PT017H.grib2 2026-04-28 20:44 637K
20260428T18Z_MSC_RDPS_WindV_IsbL-0900_RLatLon0.09_PT017H.grib2 2026-04-28 20:44 648K
20260428T18Z_MSC_RDPS_WindV_IsbL-0925_RLatLon0.09_PT017H.grib2 2026-04-28 20:44 655K
20260428T18Z_MSC_RDPS_WindV_IsbL-0950_RLatLon0.09_PT017H.grib2 2026-04-28 20:44 657K
20260428T18Z_MSC_RDPS_WindV_IsbL-0970_RLatLon0.09_PT017H.grib2 2026-04-28 20:44 799K
20260428T18Z_MSC_RDPS_WindV_IsbL-0985_RLatLon0.09_PT017H.grib2 2026-04-28 20:44 793K
20260428T18Z_MSC_RDPS_WindV_IsbL-1000_RLatLon0.09_PT017H.grib2 2026-04-28 20:44 788K
20260428T18Z_MSC_RDPS_WindV_IsbL-1015_RLatLon0.09_PT017H.grib2 2026-04-28 20:44 828K